STARLINK-1936 (46772 NORAD) Tracking and Keplerian Element Data

This shows tracking and keplerian element data for the satellite.

Feedback or suggestion? Click here.




ElementValue
Catalog46772
NameSTARLINK-1936
Epoch Orbit182
Epoch Day330.91667824
Epoch Year2020
RAAN2.3749
Inclination53.057
Eccentricity0.0001209
Argument of Perigee69.522
Mean Anonmoly359.6917
Mean Motion15.48535109
Decay Rate-0.01080915
L11 46772U 20074AK 20330.91667824 -.01080915 00000-0 -22046-1 0 9991
L22 46772 53.0570 2.3749 0001209 69.5220 359.6917 15.48535109 1821

Live tracking and technical data element details for STARLINK-1936 (NORAD 46772). STARLINK-1936 can be tracked NOW for your location showing map with azimuth and elevation plus other details from your city location.

Track the satellite on the map from your city or location and see movement details for azimuth, elevation, latitude, longitude, range, height, and movement on the map or in text.







IsCatalogInMostPopularTable: catalog: 46772, numindb: 6
Update: records affected: 1



GetName: 46772 STARLINK-1936

Hit Count: updated at: Thu, 26 Nov 2020 18:03:18 GMT